When you browse on this site, cookies collect data to enhance your experience and personalize the content and advertising you see.
Visit our Privacy Policy to learn more. By continuing to use the site, you agree to this use of cookies and data.
EN

Hourly Weather Banswara

Today, 5 July, Sunday

Time Temperature Precipitation Wind Pressure Humidity
00:00 +31°C° 0.1 mm 2 mps 728 mmHg 73%
01:00 +31°C° 0.1 mm 2 mps 727 mmHg 74%
02:00 +31°C° 0.1 mm 2 mps 727 mmHg 75%
03:00 +31°C° 0.2 mm 3 mps 727 mmHg 77%
04:00 +32°C° 0.2 mm 4 mps 727 mmHg 79%
05:00 +30°C° 0 mm 3 mps 727 mmHg 82%
06:00 +31°C° 0.1 mm 3 mps 727 mmHg 80%
07:00 +31°C° 0.1 mm 2 mps 727 mmHg 77%
08:00 +31°C° 0.1 mm 2 mps 727 mmHg 74%
09:00 +32°C° 1.4 mm 2 mps 728 mmHg 70%
10:00 +34°C° 1.4 mm 2 mps 728 mmHg 65%
11:00 +35°C° 0 mm 3 mps 728 mmHg 59%
12:00 +36°C° 0.3 mm 2 mps 728 mmHg 56%
13:00 +36°C° 0.3 mm 2 mps 727 mmHg 54%
14:00 +37°C° 0.3 mm 2 mps 727 mmHg 51%
15:00 +37°C° 1.1 mm 3 mps 726 mmHg 53%
16:00 +36°C° 1.1 mm 4 mps 726 mmHg 55%
17:00 +36°C° 0 mm 5 mps 726 mmHg 55%
18:00 +34°C° 0.4 mm 5 mps 726 mmHg 61%
19:00 +33°C° 0.4 mm 5 mps 727 mmHg 68%
20:00 +32°C° 0.4 mm 5 mps 727 mmHg 74%
21:00 +30°C° 0.2 mm 5 mps 728 mmHg 78%
22:00 +30°C° 0.2 mm 5 mps 728 mmHg 81%
23:00 +29°C° 0.2 mm 5 mps 728 mmHg 84%

Tomorrow, 6 July, Monday

Time Temperature Precipitation Wind Pressure Humidity
00:00 +29°C° 0.2 mm 5 mps 728 mmHg 84%
01:00 +29°C° 0.2 mm 4 mps 728 mmHg 85%
02:00 +29°C° 0.2 mm 4 mps 727 mmHg 85%
03:00 +29°C° 0.1 mm 3 mps 727 mmHg 85%
04:00 +28°C° 0.1 mm 3 mps 727 mmHg 84%
05:00 +28°C° 0.1 mm 3 mps 727 mmHg 84%
06:00 +29°C° 0 mm 3 mps 727 mmHg 82%
07:00 +29°C° 0 mm 4 mps 728 mmHg 80%
08:00 +29°C° 0 mm 4 mps 728 mmHg 79%
09:00 +30°C° 0 mm 4 mps 728 mmHg 73%
10:00 +33°C° 0 mm 3 mps 728 mmHg 67%
11:00 +34°C° 0 mm 3 mps 729 mmHg 61%
12:00 +35°C° 0.1 mm 3 mps 728 mmHg 60%
13:00 +35°C° 0.1 mm 4 mps 728 mmHg 58%
14:00 +36°C° 0.1 mm 4 mps 727 mmHg 56%
15:00 +35°C° 1 mm 4 mps 727 mmHg 59%
16:00 +34°C° 1 mm 5 mps 726 mmHg 62%
17:00 +34°C° 1 mm 5 mps 726 mmHg 65%
18:00 +33°C° 0.8 mm 5 mps 727 mmHg 68%
19:00 +32°C° 0.8 mm 5 mps 727 mmHg 72%
20:00 +32°C° 0.8 mm 5 mps 728 mmHg 75%
21:00 +30°C° 0.4 mm 5 mps 728 mmHg 76%
22:00 +30°C° 0.4 mm 4 mps 728 mmHg 76%
23:00 +30°C° 0.4 mm 4 mps 729 mmHg 77%

Day after tomorrow, 7 July, Tuesday

Time Temperature Precipitation Wind Pressure Humidity
00:00 +30°C° 0.1 mm 4 mps 729 mmHg 77%
01:00 +30°C° 0.1 mm 3 mps 728 mmHg 78%
02:00 +29°C° 0.1 mm 3 mps 728 mmHg 78%
03:00 +29°C° 0 mm 3 mps 728 mmHg 79%
04:00 +29°C° 0 mm 4 mps 728 mmHg 81%
05:00 +29°C° 0 mm 4 mps 728 mmHg 82%
06:00 +29°C° 0 mm 4 mps 728 mmHg 80%
07:00 +29°C° 0 mm 4 mps 729 mmHg 79%
08:00 +30°C° 0 mm 4 mps 729 mmHg 77%
09:00 +32°C° 0 mm 4 mps 730 mmHg 73%
10:00 +33°C° 0 mm 3 mps 730 mmHg 68%
11:00 +34°C° 0 mm 3 mps 730 mmHg 64%
12:00 +35°C° 0.6 mm 3 mps 729 mmHg 61%
13:00 +36°C° 0.6 mm 3 mps 729 mmHg 58%
14:00 +36°C° 0.6 mm 3 mps 728 mmHg 54%
15:00 +36°C° 1.3 mm 4 mps 728 mmHg 57%
16:00 +35°C° 1.3 mm 5 mps 728 mmHg 59%
17:00 +35°C° 1.3 mm 5 mps 728 mmHg 61%
18:00 +34°C° 1.6 mm 5 mps 728 mmHg 65%
19:00 +33°C° 1.6 mm 5 mps 729 mmHg 69%
20:00 +33°C° 1.6 mm 4 mps 729 mmHg 74%
21:00 +32°C° 0.8 mm 5 mps 730 mmHg 76%
22:00 +32°C° 0.8 mm 5 mps 730 mmHg 78%
23:00 +30°C° 0.8 mm 6 mps 730 mmHg 80%

8 July, Wednesday

Time Temperature Precipitation Wind Pressure Humidity
00:00 +30°C° 0.3 mm 6 mps 730 mmHg 81%
01:00 +29°C° 0.3 mm 6 mps 730 mmHg 82%
02:00 +29°C° 0.3 mm 5 mps 730 mmHg 83%
03:00 +29°C° 0 mm 5 mps 730 mmHg 84%
04:00 +29°C° 0 mm 5 mps 730 mmHg 84%
05:00 +29°C° 0 mm 4 mps 730 mmHg 85%
06:00 +29°C° 0 mm 5 mps 730 mmHg 83%
07:00 +29°C° 0 mm 5 mps 730 mmHg 82%
08:00 +30°C° 0 mm 5 mps 731 mmHg 80%
09:00 +32°C° 0 mm 5 mps 731 mmHg 73%
10:00 +34°C° 0 mm 5 mps 731 mmHg 66%
11:00 +35°C° 0 mm 5 mps 731 mmHg 59%
12:00 +36°C° 0 mm 6 mps 731 mmHg 57%
13:00 +36°C° 0 mm 6 mps 730 mmHg 55%
14:00 +38°C° 0 mm 6 mps 730 mmHg 53%
15:00 +36°C° 0.5 mm 6 mps 730 mmHg 54%
16:00 +36°C° 0.5 mm 6 mps 729 mmHg 55%
17:00 +36°C° 0.5 mm 6 mps 729 mmHg 55%
18:00 +35°C° 0.5 mm 6 mps 730 mmHg 59%
19:00 +34°C° 0.5 mm 6 mps 730 mmHg 63%
20:00 +33°C° 0.5 mm 6 mps 730 mmHg 67%
21:00 +33°C° 0 mm 6 mps 730 mmHg 70%
22:00 +32°C° 0 mm 6 mps 730 mmHg 73%
23:00 +32°C° 0 mm 6 mps 730 mmHg 76%

9 July, Thursday

Time Temperature Precipitation Wind Pressure Humidity
00:00 +30°C° 0 mm 6 mps 730 mmHg 78%
01:00 +30°C° 0 mm 6 mps 730 mmHg 80%
02:00 +29°C° 0 mm 6 mps 730 mmHg 82%
03:00 +29°C° 0.1 mm 6 mps 730 mmHg 82%
04:00 +29°C° 0.1 mm 6 mps 730 mmHg 82%
05:00 +29°C° 0.1 mm 6 mps 730 mmHg 82%
06:00 +29°C° 0 mm 5 mps 730 mmHg 80%
07:00 +30°C° 0 mm 5 mps 730 mmHg 78%
08:00 +30°C° 0 mm 5 mps 731 mmHg 76%
09:00 +32°C° 0 mm 5 mps 731 mmHg 73%
10:00 +33°C° 0 mm 5 mps 731 mmHg 69%
11:00 +34°C° 0 mm 5 mps 731 mmHg 65%
12:00 +34°C° 0 mm 5 mps 730 mmHg 63%
13:00 +35°C° 0 mm 6 mps 730 mmHg 60%
14:00 +35°C° 0 mm 6 mps 729 mmHg 57%
15:00 +35°C° 0 mm 6 mps 729 mmHg 56%
16:00 +35°C° 0 mm 6 mps 728 mmHg 56%
17:00 +35°C° 0 mm 6 mps 728 mmHg 55%
18:00 +35°C° 0 mm 6 mps 728 mmHg 59%
19:00 +34°C° 0 mm 6 mps 729 mmHg 63%
20:00 +33°C° 0 mm 6 mps 729 mmHg 66%
21:00 +32°C° 0 mm 6 mps 729 mmHg 69%
22:00 +32°C° 0 mm 7 mps 729 mmHg 72%
23:00 +30°C° 0 mm 7 mps 730 mmHg 74%

10 July, Friday

Time Temperature Precipitation Wind Pressure Humidity
00:00 +30°C° 0.1 mm 7 mps 729 mmHg 75%
01:00 +30°C° 0.1 mm 6 mps 729 mmHg 76%
02:00 +30°C° 0.1 mm 6 mps 729 mmHg 77%
03:00 +29°C° 0.1 mm 6 mps 729 mmHg 78%
04:00 +29°C° 0.1 mm 6 mps 729 mmHg 79%
05:00 +29°C° 0.1 mm 6 mps 729 mmHg 80%
06:00 +29°C° 0 mm 6 mps 729 mmHg 78%
07:00 +30°C° 0 mm 7 mps 729 mmHg 76%
08:00 +30°C° 0 mm 7 mps 730 mmHg 73%
09:00 +32°C° 0 mm 7 mps 730 mmHg 69%
10:00 +33°C° 0 mm 7 mps 730 mmHg 64%
11:00 +34°C° 0 mm 7 mps 730 mmHg 60%
12:00 +35°C° 0 mm 7 mps 729 mmHg 56%
13:00 +38°C° 0 mm 7 mps 729 mmHg 52%
14:00 +39°C° 0 mm 7 mps 728 mmHg 48%
15:00 +38°C° 0.2 mm 7 mps 728 mmHg 50%
16:00 +36°C° 0.2 mm 7 mps 728 mmHg 52%
17:00 +36°C° 0.2 mm 7 mps 727 mmHg 54%
18:00 +35°C° 0.4 mm 6 mps 728 mmHg 58%
19:00 +34°C° 0.4 mm 6 mps 728 mmHg 61%
20:00 +33°C° 0.4 mm 6 mps 728 mmHg 65%
21:00 +33°C° 0.4 mm 7 mps 729 mmHg 68%
22:00 +32°C° 0.4 mm 7 mps 729 mmHg 71%
23:00 +32°C° 0.4 mm 7 mps 729 mmHg 73%
Show more